Location: Scenic
(43.7797°N, 102.5549°W)
Time: 08:42:06
(UTC-07:00)

N. Korean satellite - Visible Passes

Search period start: 18 November 2017 00:00
Search period end: 28 November 2017 00:00
Orbit: 460 x 515 km, 97.2° (Epoch: 17 November)

Date Brightness Start Highest point End Pass type
(mag) Time Alt. Az. Time Alt. Az. Time Alt. Az.
18 Nov 8.6 06:12:02 10° NNE 06:15:29 35° E 06:18:56 10° SSE visible
18 Nov 8.0 16:50:38 10° ESE 16:52:57 17° ENE 16:55:17 10° NNE visible
18 Nov 8.4 18:23:06 10° SSW 18:26:13 31° W 18:29:25 10° NNW visible
19 Nov 9.8 05:49:10 10° NE 05:51:53 19° E 05:54:37 10° SE visible
19 Nov 6.9 17:59:13 10° S 18:02:41 64° W 18:06:13 10° NNW visible
20 Nov 10.5 05:27:42 10° E 05:28:13 10° E 05:28:44 10° E visible
20 Nov 6.4 17:35:46 10° SSE 17:39:13 61° ENE 17:42:44 10° N visible
21 Nov 7.3 17:12:43 10° SE 17:15:49 30° ENE 17:19:00 10° N visible
21 Nov 9.6 18:47:08 10° SW 18:49:26 17° W 18:51:47 10° NW visible
22 Nov 8.6 06:11:37 10° NNE 06:15:06 35° E 06:18:34 10° SSE visible
22 Nov 8.1 16:50:10 10° ESE 16:52:31 17° ENE 16:54:53 10° NNE visible
22 Nov 8.4 18:22:38 10° SSW 18:25:47 31° W 18:29:01 10° NNW visible
23 Nov 9.8 05:48:44 10° NE 05:51:29 19° E 05:54:13 10° SE visible
23 Nov 6.9 17:58:44 10° S 18:02:13 64° W 18:05:48 10° NNW visible
24 Nov 10.4 05:27:13 10° E 05:27:47 10° E 05:28:21 10° E visible
24 Nov 6.5 17:35:16 10° SSE 17:38:44 61° ENE 17:42:18 10° N visible
25 Nov 7.3 17:12:11 10° SE 17:15:20 31° ENE 17:18:33 10° N visible
25 Nov 9.5 18:46:34 10° SW 18:48:56 17° W 18:51:21 10° NW visible
26 Nov 8.6 06:11:08 10° NNE 06:14:37 35° E 06:18:05 10° SSE visible
26 Nov 8.1 16:49:37 10° ESE 16:52:00 17° ENE 16:54:25 10° NNE visible
26 Nov 8.4 18:22:04 10° SSW 18:25:16 32° W 18:28:33 10° NNW visible
27 Nov 9.8 05:48:14 10° NE 05:50:59 19° E 05:53:44 10° SE visible
27 Nov 6.9 17:58:10 10° S 18:01:42 65° W 18:05:19 10° NNW visible
